Location: Treviso
(45.6669°N, 12.2430°E)
Time: 08:04:16
(UTC+02:00)

ISS - Pass Details

Date: 18 March 2018
Orbit: 402 x 407 km, 51.6° (Epoch: 25 June)

Event Time Altitude Azimuth Distance (km) Brightness Sun altitude
Exits shadow 03:47:01 22° 91° (E) 944 -1.4 -26.3°
Drops below altitude 10° 03:48:25 10° 100° (E) 1,476 -0.4 -26.1°
Enters shadow 04:48:13 -61° 304° (NW) 11,676 3.5 -16.4°
